{"data":{"norad_id":69615,"intl_designator":"2026-140Z","name":"KUIPER-00547","alt_names":[],"object_type":"PAYLOAD","status":"ACTIVE","operator":null,"country":"US","launch_date":"2026-06-17","launch_site_code":"FRGUI","launch_vehicle":null,"mission":null,"orbit_class":"UNKNOWN","rcs_meters":null,"size_class":null,"mass_kg":null,"dimensions":null,"purposes":[],"wikipedia_slug":null,"has_3d_model":false,"image_url":null,"decayed_at":null,"tle_current":{"epoch":"2026-09-20T04:00:03.000096Z","epoch_age_seconds":57814,"freshness":"FRESH","line1":"1 69615U 26140Z   26263.16670139 -.01884640  00000+0 -61298-1 0  9991","line2":"2 69615  51.8817 299.0653 0011019 159.3295 101.6732 15.34740138  5538","mean_motion":15.34740138,"eccentricity":0.0011019,"inclination_deg":51.8817,"raan_deg":299.0653,"arg_perigee_deg":159.3295,"mean_anomaly_deg":101.6732,"bstar":-0.061298,"rev_number":553,"period_min":93.826958997537,"perigee_km":454.15565701995,"apogee_km":469.22927319515,"semimajor_km":6839.8294651075,"source":"CELESTRAK","updated_at":"2026-09-20T09:00:25.004804Z"}}}